Hastings, NE

5:06 PM CST on November 23, 2017 (GMT -0600)
Hastings Municipal

Weather History for KHSI - April, 2013

Change the Weather History Date:

Wednesday, April 17, 2013

  Actual Average Record
Temperature  
Mean Temperature 36 °F 51 °F  
Max Temperature 42 °F 64 °F 89 °F (1985)
Min Temperature 30 °F 39 °F 23 °F (1921)
Degree Days  
Heating Degree Days 29 14  
Month to date heating degree days 374 281  
Since 1 July heating degree days 5883 5688  
Cooling Degree Days 0 0  
Month to date cooling degree days 0 0  
Year to date cooling degree days 0 0  
Moisture  
Dew Point 33 °F    
Average Humidity 81    
Maximum Humidity 100    
Minimum Humidity 62    
Precipitation  
Precipitation 0.24 in 0.09 in 1.85 in (2016)
Month to date precipitation 1.41 1.19  
Year to date precipitation 4.88 3.88  
Snow  
Snow 0.80 in 0.10 in 2.00 in (1945)
Month to date snowfall 2.0 1.0  
Since 1 July snowfall 33.7 28.6  
Snow Depth -    
Sea Level Pressure  
Sea Level Pressure 29.95 in    
Wind  
Wind Speed 19 mph (NNE)    
Max Wind Speed 36 mph    
Max Gust Speed 44 mph    
Visibility 7 miles    
Events Rain , Snow , Thunderstorm    
T = Trace of Precipitation, MM = Missing Value Source: NWS Daily Summary

Daily Weather History Graph

Daily Weather History Graph

Search for Another Location

Airport or City:

Trip Planner

Search our weather history database for the weather conditions in past years. The results will help you decide how hot, cold, wet, or windy it might be!

Date:

Astronomy

Apr. 17, 2013 Rise Set
Actual Time 6:51 AM CDT 8:15 PM CDT
Civil Twilight 6:23 AM CDT 8:43 PM CDT
Nautical Twilight 5:49 AM CDT 9:18 PM CDT
Astronomical Twilight 5:12 AM CDT 9:54 PM CDT
Moon 12:06 PM CDT (4/17) 1:54 AM CDT (4/17)
Length of Visible Light 14h 20m
Length of Day
13h 23m
Waxing Crescent, 42% of the Moon is Illuminated
Apr 17
Waxing Crescent
Apr 18
First Quarter
Apr 25
Full
May 2
Last Quarter
May 9
New

Hourly Weather History & Observations

Time (CDT) Temp. Windchill Dew Point Humidity Pressure Visibility Wind Dir Wind Speed Gust Speed Precip Events Conditions
12:53 AM 42.1 °F 34.9 °F 30.9 °F 65% 30.10 in 10.0 mi ENE 13.8 mph - N/A   Overcast
1:53 AM 42.1 °F 35.7 °F 30.9 °F 65% 30.10 in 10.0 mi East 11.5 mph - N/A   Overcast
2:50 AM 41.0 °F 35.2 °F 33.8 °F 76% 30.03 in 10.0 mi NE 9.2 mph - N/A   Overcast
2:53 AM 41.0 °F 34.7 °F 33.1 °F 73% 30.06 in 10.0 mi ENE 10.4 mph - N/A   Overcast
3:53 AM 39.9 °F 30.8 °F 33.1 °F 77% 29.99 in 10.0 mi ENE 18.4 mph 26.5 mph 0.00 in Rain Light Rain
4:04 AM 39.2 °F 32.5 °F 33.8 °F 81% 30.11 in 10.0 mi SE 10.4 mph 19.6 mph 0.00 in Thunderstorm Overcast
4:39 AM 35.6 °F 26.6 °F 33.8 °F 93% 29.97 in 9.0 mi NE 13.8 mph - 0.11 in Rain Light Rain
4:53 AM 36.0 °F 32.1 °F 34.0 °F 93% 30.06 in 8.0 mi North 4.6 mph - 0.12 in Rain Light Rain
5:14 AM 35.6 °F 26.6 °F 33.8 °F 93% 29.96 in 7.0 mi NE 13.8 mph - 0.06 in Rain , Thunderstorm Light Rain
5:39 AM 35.6 °F 27.5 °F 33.8 °F 93% 29.99 in 10.0 mi NNE 11.5 mph - 0.06 in Rain Light Rain
5:51 AM 35.6 °F 27.5 °F 33.8 °F 93% 29.99 in 10.0 mi NE 11.5 mph - 0.06 in Thunderstorm Overcast
5:53 AM 36.0 °F 28.0 °F 34.0 °F 93% 30.03 in 10.0 mi NE 11.5 mph - 0.06 in Thunderstorm Overcast
6:02 AM 35.6 °F 27.5 °F 33.8 °F 93% 29.98 in 10.0 mi NE 11.5 mph - N/A Thunderstorm Overcast
6:13 AM 35.6 °F 28.0 °F 33.8 °F 93% 30.02 in 8.0 mi North 10.4 mph - N/A   Overcast
6:20 AM 35.6 °F 28.0 °F 33.8 °F 93% 30.01 in 7.0 mi NNE 10.4 mph - 0.00 in Rain Light Rain
6:53 AM 34.0 °F 23.4 °F 32.0 °F 92% 30.01 in 9.0 mi NNE 17.3 mph - 0.01 in   Overcast
7:53 AM 33.1 °F 22.6 °F 32.0 °F 96% 30.01 in 4.0 mi NNE 16.1 mph 25.3 mph N/A   Overcast
8:53 AM 33.8 °F 22.8 °F 32.0 °F 93% 29.98 in 5.0 mi NNE 18.4 mph 26.5 mph N/A   Overcast
9:32 AM 33.8 °F 21.9 °F 33.8 °F 100% 29.97 in 2.5 mi NNE 21.9 mph 27.6 mph N/A   Overcast
9:53 AM 34.0 °F 22.7 °F 33.1 °F 96% 30.00 in 2.0 mi NNE 19.6 mph 28.8 mph N/A   Overcast
10:38 AM 33.8 °F 23.2 °F 33.8 °F 100% 29.95 in 1.8 mi NNE 17.3 mph - N/A   Overcast
10:53 AM 35.1 °F 24.5 °F 34.0 °F 96% 29.99 in 2.0 mi NNE 18.4 mph - N/A   Overcast
11:19 AM 35.6 °F 24.5 °F 33.8 °F 93% 29.96 in 1.8 mi NNE 20.7 mph 26.5 mph N/A   Overcast
11:53 AM 35.1 °F 24.1 °F 34.0 °F 96% 29.96 in 1.5 mi NNE 19.6 mph 25.3 mph 0.00 in Rain Light Rain
12:08 PM 35.6 °F 24.5 °F 33.8 °F 93% 29.94 in 2.0 mi NNE 20.7 mph - 0.00 in   Overcast
12:34 PM 35.6 °F 25.2 °F 33.8 °F 93% 29.95 in 3.0 mi NNE 18.4 mph 25.3 mph 0.00 in   Overcast
12:53 PM 36.0 °F 26.3 °F 35.1 °F 97% 29.96 in 4.0 mi North 16.1 mph 20.7 mph 0.00 in   Overcast
1:53 PM 36.0 °F 26.0 °F 35.1 °F 97% 29.93 in 3.0 mi NNE 17.3 mph - N/A   Overcast
2:31 PM 35.6 °F 25.2 °F 35.6 °F 100% 29.86 in 2.5 mi NNE 18.4 mph 27.6 mph 0.00 in   Overcast
2:53 PM 37.0 °F 26.2 °F 35.1 °F 93% 29.88 in 3.0 mi NNE 21.9 mph 27.6 mph 0.00 in Rain Light Rain
3:45 PM 37.4 °F 27.2 °F 35.6 °F 93% 29.84 in 2.0 mi NNE 19.6 mph 27.6 mph 0.00 in Snow Light Snow
3:53 PM 37.0 °F 27.4 °F 36.0 °F 96% 29.88 in 2.0 mi North 17.3 mph 25.3 mph 0.00 in Snow Light Snow
4:09 PM 37.4 °F 27.2 °F 35.6 °F 93% 29.85 in 4.0 mi North 19.6 mph 25.3 mph 0.00 in Rain Light Rain
4:53 PM 37.0 °F 27.7 °F 35.1 °F 93% 29.92 in 7.0 mi North 16.1 mph - 0.00 in   Overcast
5:25 PM 35.6 °F 24.0 °F 35.6 °F 100% 29.83 in 2.5 mi North 23.0 mph 31.1 mph 0.00 in   Overcast
5:33 PM 37.4 °F 26.9 °F 35.6 °F 93% 29.83 in 5.0 mi North 20.7 mph 31.1 mph 0.00 in   Overcast
5:53 PM 36.0 °F 24.4 °F 35.1 °F 97% 29.88 in 4.0 mi North 23.0 mph 29.9 mph 0.00 in   Overcast
6:44 PM 35.6 °F 25.2 °F 33.8 °F 93% 29.86 in 10.0 mi North 18.4 mph 31.1 mph N/A   Overcast
6:53 PM 36.0 °F 24.7 °F 34.0 °F 93% 29.91 in 10.0 mi North 21.9 mph 28.8 mph N/A   Overcast
7:39 PM 35.6 °F 23.7 °F 33.8 °F 93% 29.87 in 10.0 mi North 24.2 mph 29.9 mph N/A   Overcast
7:53 PM 35.1 °F 22.7 °F 32.0 °F 89% 29.93 in 10.0 mi North 25.3 mph 32.2 mph N/A   Overcast
8:06 PM 35.6 °F 23.2 °F 32.0 °F 87% 29.89 in 10.0 mi North 26.5 mph 32.2 mph N/A   Overcast
8:53 PM 34.0 °F 20.8 °F 30.9 °F 89% 29.94 in 10.0 mi North 27.6 mph 35.7 mph N/A   Overcast
9:31 PM 33.8 °F 20.5 °F 30.2 °F 87% 29.89 in 10.0 mi North 27.6 mph 35.7 mph N/A   Overcast
9:53 PM 33.1 °F 19.8 °F 30.0 °F 89% 29.93 in 10.0 mi North 26.5 mph 41.4 mph N/A   Overcast
10:53 PM 33.1 °F 18.9 °F 30.0 °F 89% 29.91 in 10.0 mi North 31.1 mph 42.6 mph N/A   Overcast
11:53 PM 32.0 °F 18.9 °F 28.9 °F 88% 29.91 in 9.0 mi North 24.2 mph 38.0 mph 0.00 in Snow Light Snow